Flag for Argentina

Past Weather in 38°24'57"S, 63°37'00"W, Argentina — Yesterday and Last 2 Weeks

Now
46 °F

Low clouds.


Feels Like: 39 °F
Forecast: 75 / 39 °F
Wind: 18 mph from Southwest

Location: Mar Del Plata Aerodrome
Current Time: Sep 28, 2020 at 7:05:46 am
Latest Report: Sep 28, 2020 at 6:00 am
Visibility: N/A
Pressure29.74 "Hg
Humidity: 93%
Dew Point: 45 °F
Location of 38°24'57"S, 63°37'00"WLocation

Past Weather in 38°24'57"S, 63°37'00"W — Graph

°F

38°24'57"S, 63°37'00"W Temperature Yesterday

Maximum temperature yesterday: 54 °F (at 12:00 am)
Minimum temperature yesterday: 48 °F (at 11:00 pm)
Average temperature yesterday: 53 °F

High & Low Weather Summary for the Past Weeks

 TemperatureHumidityPressure
High75 °F (Sep 17, 1:00 pm)100% (Sep 15, 4:00 am)30.30 "Hg (Sep 15, 4:00 am)
Low30 °F (Sep 20, 5:00 am)20% (Sep 18, 2:00 pm)29.59 "Hg (Sep 17, 3:00 pm)
Average50 °F77%30.03 "Hg
* Reported Sep 13 5:00 am — Sep 28 5:00 am, 38°24'57"S, 63°37'00"W. Weather by CustomWeather, © 2020

Note: Actual official high and low records may vary slightly from our data, if they occured in-between our weather recording intervals... More about our weather records

38°24'57"S, 63°37'00"W Weather History for the Previous 24 Hours

Scroll right to see more
 ConditionsComfort  
Time TempWeatherWind HumidityBarometerVisibility
5:00 am
Mon, Sep 28
46 °FLow clouds.18 mph93%29.74 "HgN/A
4:00 am46 °FLow clouds.18 mph93%29.71 "HgN/A
3:00 am46 °FLow clouds.16 mph93%29.71 "HgN/A
2:00 am46 °FLow clouds.18 mph93%29.74 "HgN/A
1:00 am46 °FLow clouds.18 mph100%29.74 "HgN/A
12:00 am48 °FLow clouds.18 mph94%29.74 "Hg6 mi
11:00 pm
Sun, Sep 27
48 °FLow clouds.18 mph100%30.04 "Hg4 mi
10:00 pm50 °FFog.14 mph100%29.74 "Hg3 mi
9:00 pm52 °FLight rain. Fog.14 mph94%29.71 "Hg2 mi
8:00 pm52 °FLight rain. Fog.9 mph94%29.68 "Hg2 mi
7:00 pm52 °FRain. Low clouds.9 mph94%29.68 "Hg1 mi
6:00 pm54 °FFog.15 mph94%29.65 "Hg1 mi
5:00 pm54 °FCool.15 mph88%29.62 "Hg4 mi
4:00 pm54 °FFog.14 mph94%29.62 "Hg2 mi
3:00 pm52 °FDrizzle. Fog.16 mph100%29.62 "Hg1 mi
2:00 pm52 °FDrizzle. Fog.10 mph100%29.65 "Hg1 mi
1:00 pm52 °FFog.16 mph100%29.62 "Hg2 mi
12:00 pm52 °FDrizzle. Fog.12 mph100%29.59 "Hg2 mi
11:00 am52 °FDrizzle. Fog.7 mph100%29.62 "Hg1 mi
10:00 am54 °FDrizzle. Fog.5 mph100%29.65 "Hg3 mi
9:00 am54 °FLight rain. Fog.6 mph100%29.65 "Hg2 mi
8:00 am54 °FLow clouds.6 mph100%29.65 "Hg1 mi
7:00 am54 °FFog.3 mph100%29.62 "Hg3 mi
Weather by CustomWeather, © 2020

See weather overview